Regional Weather Roundup
Issued by NWS Kansas City/Pleasant Hill, MO

Home | Current Version | Previous Version | Graphics & Text | Print | Product List | Glossary Off
Versions: 1 2 3 4 5 6 7 8 9 10 11 12 13 14 15 16 17 18 19 20 21 22 23 24 25 26 27

000
ASUS43 KEAX 290910
RWREAX

WEATHER ROUNDUP FOR EASTERN KANSAS AND NORTHWEST MISSOURI
NATIONAL WEATHER SERVICE KANSAS CITY/PLEASANT HILL MO
400 AM CDT MON AUG 29 2016

KSZ040-057-103>105-MOZ028-029-037-043-291000-
...KANSAS CITY METROPOLITAN AREA...

CITY           SKY/WX    TMP DP  RH WIND       PRES   REMARKS
K.C. INTL      CLEAR     71  67  87 E7        30.13S
K.C. DOWNTOWN  CLEAR     72  69  90 NE3       30.12R
LEES SUMMIT    CLEAR     72  71  97 NE3       30.13S
OLATHE - IXD   CLEAR     72  70  93 CALM      30.14R
OLATHE - OJC   CLEAR     71  69  93 CALM      30.14R
LAWRENCE       CLEAR     69  68  96 CALM      30.13R

$$

MOZ001>008-011>017-020>025-030>033-038>040-044>046-053-054-291000-
...NORTHERN AND CENTRAL MISSOURI...

CITY           SKY/WX    TMP DP  RH WIND       PRES   REMARKS
ST. JOSEPH     CLEAR     69  67  93 N3        30.14S
MOSBY          SUNNY     70  70 100 CALM      30.13S
WHITEMAN AFB   CLEAR     72  72 100 S3        30.12R
CLINTON        CLEAR     70  70 100 CALM      30.12S FOG
SEDALIA        CLEAR     72  70  93 SE3       30.14S
WARSAW         NOT AVBL
CHILLICOTHE    NOT AVBL
KIRKSVILLE     PTCLDY    70  69  97 E3        30.16R

$$

MOZ041-047>049-056>058-063>065-088>090-097-291000-
...EASTERN AND SOUTHERN MISSOURI...

CITY           SKY/WX    TMP DP  RH WIND       PRES   REMARKS
ST. LOUIS INTL CLEAR     79  73  82 E5        30.14S
SPIRIT OF STL  CLEAR     73  72  96 CALM      30.12S FOG
COLUMBIA       CLEAR     74  72  93 E7        30.13F
JEFFERSON CITY CLEAR     73  71  93 CALM      30.12F
ROLLA          CLEAR     72  70  93 SE6       30.14S
OSAGE BEACH    CLEAR     70  69  97 CALM      30.14S
SPRINGFIELD    CLEAR     73  68  84 SE3       30.13S
BRANSON          N/A     68  68 100 CALM      30.13F
JOPLIN         CLEAR     72  70  93 CALM      30.12R
WEST PLAINS    CLEAR     71  69  93 CALM      30.15F

$$

IAZ060-094-KSZ022-034>040-054-083-096-NEZ052-066-093-291000-
...KANSAS...SOUTHEAST NEBRASKA AND IOWA...

CITY           SKY/WX    TMP DP  RH WIND       PRES   REMARKS
TOPEKA         CLOUDY    71  69  93 NE3       30.13R
MANHATTAN      PTCLDY    71  69  93 CALM      30.12R
EMPORIA        CLEAR     69  68  96 E5        30.12R
CHANUTE        CLEAR     72  69  90 E5        30.11R
WICHITA        MOCLDY    73  69  87 N8        30.12R
OMAHA          CLOUDY    71  66  84 SE5       30.14S
LINCOLN        CLOUDY    72  68  87 CALM      30.15R
FALLS CITY     MOCLDY    69  68  96 E5        30.13S
LAMONI         PTCLDY    71  70  96 CALM      30.15F
DES MOINES     CLOUDY    73  69  87 S3        30.14S

$$





USA.gov is the U.S. government's official web portal to all federal, state and local government web resources and services.